METAR LSZS 160120Z AUTO VRB01KT 9999 FEW041 01/01 Q1016=
Diese Daten sind ohne Gewähr und dürfen nicht für die Flugvorbereitung verwendet werden.
Information contained in this website shall not be used for flight operation purposes.